| time (UTC) | temp C | wind direction | speed KPH | gust KPH | rain 1hr cm | rain 24hr cm | rain mn cm | humidity % | barometer mb |
| 20260507075717 | 9 | 239 | 0.0 | 6.4 | 0.00 | 0.58 | 0.00 | 89 | 1008.1 |
| 20260507075216 | 9 | 236 | 0.0 | 3.2 | 0.00 | 0.58 | 0.00 | 89 | 1008.3 |
| 20260507074715 | 9 | 236 | 1.6 | 6.4 | 0.00 | 0.58 | 0.00 | 89 | 1008.2 |
| 20260507074212 | 9 | 236 | 1.6 | 6.4 | 0.00 | 0.58 | 0.00 | 89 | 1008.0 |
| 20260507073710 | 9 | 235 | 1.6 | 6.4 | 0.00 | 0.58 | 0.00 | 89 | 1007.9 |
| 20260507073601 | 9 | 241 | 0.0 | 6.4 | 0.00 | 0.58 | 0.00 | 89 | 1007.7 |
| 20260507073246 | 9 | 244 | 1.6 | 6.4 | 0.00 | 0.58 | 0.00 | 89 | 1007.8 |
| 20260507072459 | 9 | 302 | 0.0 | 4.8 | 0.00 | 0.58 | 0.00 | 89 | 1007.8 |
| 20260507071706 | 9 | 302 | 1.6 | 4.8 | 0.00 | 0.58 | 0.00 | 89 | 1007.7 |
| 20260507071455 | 9 | 252 | 1.6 | 6.4 | 0.00 | 0.58 | 0.00 | 89 | 1007.8 |
| 20260507070705 | 9 | 238 | 1.6 | 9.7 | 0.00 | 0.58 | 0.00 | 89 | 1007.8 |
| 20260507070202 | 9 | 246 | 1.6 | 9.7 | 0.00 | 0.58 | 0.00 | 90 | 1008.0 |
| 20260507065702 | 9 | 304 | 1.6 | 9.7 | 0.00 | 0.58 | 0.00 | 90 | 1007.8 |
| 20260507065204 | 9 | 333 | 3.2 | 9.7 | 0.00 | 0.58 | 0.00 | 90 | 1007.6 |
| 20260507064700 | 9 | 306 | 3.2 | 11.3 | 0.00 | 0.58 | 0.00 | 90 | 1007.5 |
| 20260507064448 | 10 | 261 | 1.6 | 11.3 | 0.00 | 0.58 | 0.00 | 91 | 1007.7 |
| 20260507063648 | 10 | 246 | 1.6 | 9.7 | 0.00 | 0.58 | 0.00 | 91 | 1007.7 |
| 20260507063142 | 10 | 257 | 1.6 | 6.4 | 0.00 | 0.58 | 0.00 | 91 | 1007.5 |
| 20260507062637 | 10 | 232 | 1.6 | 4.8 | 0.00 | 0.58 | 0.00 | 91 | 1007.4 |
| 20260507062133 | 10 | 78 | 0.0 | 4.8 | 0.00 | 0.58 | 0.00 | 91 | 1007.4 |
| 20260507061631 | 10 | 78 | 0.0 | 3.2 | 0.00 | 0.58 | 0.00 | 91 | 1007.3 |
| 20260507061133 | 10 | 78 | 0.0 | 4.8 | 0.00 | 0.58 | 0.00 | 91 | 1007.2 |
| 20260507060632 | 10 | 78 | 1.6 | 4.8 | 0.00 | 0.58 | 0.00 | 91 | 1007.5 |
| 20260507060134 | 10 | 237 | 1.6 | 4.8 | 0.00 | 0.58 | 0.00 | 91 | 1007.7 |
| 20260507055635 | 10 | 20 | 0.0 | 4.8 | 0.00 | 0.58 | 0.00 | 92 | 1007.7 |
| 20260507055131 | 10 | 264 | 0.0 | 6.4 | 0.00 | 0.58 | 0.00 | 92 | 1007.7 |
| 20260507054631 | 10 | 258 | 0.0 | 6.4 | 0.00 | 0.58 | 0.00 | 92 | 1007.7 |
| 20260507054423 | 11 | 272 | 0.0 | 3.2 | 0.00 | 0.58 | 0.00 | 92 | 1007.9 |
| 20260507053631 | 11 | 272 | 0.0 | 1.6 | 0.00 | 0.58 | 0.00 | 92 | 1007.9 |
| 20260507053131 | 11 | 272 | 0.0 | 3.2 | 0.00 | 0.58 | 0.00 | 92 | 1007.8 |
| 20260507052631 | 11 | 272 | 0.0 | 3.2 | 0.00 | 0.58 | 0.00 | 92 | 1007.7 |
| 20260507052132 | 11 | 272 | 0.0 | 4.8 | 0.00 | 0.58 | 0.00 | 92 | 1007.7 |
| 20260507051631 | 11 | 272 | 0.0 | 4.8 | 0.00 | 0.58 | 0.00 | 92 | 1007.9 |
| 20260507051130 | 11 | 265 | 0.0 | 3.2 | 0.00 | 0.58 | 0.00 | 92 | 1007.7 |
| 20260507050629 | 11 | 28 | 0.0 | 1.6 | 0.00 | 0.58 | 0.00 | 92 | 1007.6 |
| 20260507050130 | 11 | 28 | 0.0 | 6.4 | 0.00 | 0.58 | 0.00 | 92 | 1007.5 |
| 20260507045629 | 11 | 28 | 1.6 | 6.4 | 0.00 | 0.58 | 0.00 | 92 | 1007.3 |
| 20260507045124 | 11 | 260 | 0.0 | 3.2 | 0.00 | 0.58 | 0.00 | 92 | 1007.6 |
| 20260507044617 | 11 | 260 | 0.0 | 4.8 | 0.00 | 0.58 | 0.00 | 92 | 1007.6 |
| 20260507044111 | 11 | 260 | 0.0 | 4.8 | 0.00 | 0.58 | 0.00 | 92 | 1007.7 |
| 20260507043610 | 11 | 237 | 0.0 | 1.6 | 0.00 | 0.58 | 0.00 | 92 | 1007.6 |
| 20260507043108 | 11 | 237 | 0.0 | 3.2 | 0.00 | 0.58 | 0.00 | 92 | 1007.7 |
| 20260507042608 | 12 | 237 | 0.0 | 3.2 | 0.00 | 0.58 | 0.00 | 92 | 1007.7 |
| 20260507042356 | 12 | 237 | 0.0 | 1.6 | 0.00 | 0.58 | 0.00 | 92 | 1007.8 |
| 20260507041602 | 12 | 237 | 0.0 | 6.4 | 0.00 | 0.58 | 0.00 | 92 | 1007.9 |
| 20260507041102 | 12 | 232 | 1.6 | 6.4 | 0.00 | 0.58 | 0.00 | 92 | 1007.9 |
| 20260507040602 | 12 | 101 | 1.6 | 6.4 | 0.03 | 0.58 | 0.00 | 92 | 1007.7 |
| 20260507035604 | 12 | 255 | 0.0 | 4.8 | 0.03 | 0.58 | 0.58 | 92 | 1007.4 |
| 20260507035104 | 12 | 205 | 0.0 | 6.4 | 0.03 | 0.58 | 0.58 | 92 | 1007.2 |
| 20260507034603 | 13 | 205 | 1.6 | 6.4 | 0.03 | 0.58 | 0.58 | 92 | 1007.2 |
| 20260507034102 | 13 | 205 | 1.6 | 8.0 | 0.03 | 0.58 | 0.58 | 92 | 1007.1 |
| 20260507033600 | 13 | 298 | 1.6 | 8.0 | 0.03 | 0.58 | 0.58 | 93 | 1007.0 |
| 20260507033103 | 13 | 171 | 1.6 | 4.8 | 0.03 | 0.58 | 0.58 | 93 | 1007.0 |
| 20260507032604 | 13 | 192 | 1.6 | 4.8 | 0.03 | 0.58 | 0.58 | 93 | 1006.9 |
| 20260507032101 | 13 | 294 | 1.6 | 12.9 | 0.03 | 0.58 | 0.58 | 93 | 1006.8 |
| 20260507031601 | 14 | 274 | 3.2 | 12.9 | 0.03 | 0.58 | 0.58 | 93 | 1006.9 |
| 20260507031103 | 14 | 275 | 1.6 | 9.7 | 0.03 | 0.58 | 0.58 | 94 | 1007.0 |
| 20260507030600 | 15 | 271 | 1.6 | 9.7 | 0.00 | 0.56 | 0.56 | 94 | 1007.0 |
| 20260507030053 | 15 | 264 | 1.6 | 9.7 | 0.00 | 0.56 | 0.56 | 94 | 1006.6 |
| 20260507025547 | 15 | 53 | 1.6 | 9.7 | 0.00 | 0.56 | 0.56 | 94 | 1006.5 |
| 20260507025042 | 15 | 200 | 1.6 | 4.8 | 0.00 | 0.56 | 0.56 | 94 | 1006.5 |
| 20260507024834 | 15 | 109 | 0.0 | 4.8 | 0.00 | 0.56 | 0.56 | 94 | 1006.5 |
| 20260507024038 | 15 | 109 | 1.6 | 4.8 | 0.00 | 0.56 | 0.56 | 94 | 1006.4 |
| 20260507023913 | 15 | 132 | 0.0 | 4.8 | 0.00 | 0.56 | 0.56 | 94 | 1006.3 |
| 20260507023907 | 15 | 132 | 1.6 | 4.8 | 0.00 | 0.56 | 0.56 | 94 | 1006.3 |
| 20260507022535 | 15 | 268 | 0.0 | 4.8 | 0.00 | 0.56 | 0.56 | 94 | 1006.2 |
| 20260507022035 | 15 | 268 | 1.6 | 4.8 | 0.00 | 0.56 | 0.56 | 94 | 1006.1 |
| 20260507021532 | 15 | 265 | 0.0 | 4.8 | 0.00 | 0.56 | 0.56 | 94 | 1006.2 |
| 20260507021326 | 15 | 265 | 1.6 | 4.8 | 0.00 | 0.56 | 0.56 | 94 | 1006.2 |
| 20260507020826 | 15 | 267 | 1.6 | 8.0 | 0.00 | 0.56 | 0.56 | 94 | 1006.1 |
| 20260507020031 | 15 | 207 | 1.6 | 8.0 | 0.00 | 0.56 | 0.56 | 94 | 1006.2 |
| 20260507015531 | 15 | 241 | 1.6 | 11.3 | 0.00 | 0.56 | 0.56 | 94 | 1006.3 |
| 20260507015031 | 15 | 252 | 1.6 | 11.3 | 0.00 | 0.56 | 0.56 | 94 | 1006.3 |
| 20260507014530 | 15 | 119 | 1.6 | 9.7 | 0.00 | 0.56 | 0.56 | 94 | 1006.3 |
| 20260507014323 | 15 | 174 | 1.6 | 9.7 | 0.00 | 0.56 | 0.56 | 94 | 1006.3 |
| 20260507013530 | 15 | 267 | 1.6 | 9.7 | 0.00 | 0.56 | 0.56 | 94 | 1006.4 |
| 20260507013030 | 15 | 286 | 1.6 | 9.7 | 0.00 | 0.56 | 0.56 | 94 | 1006.3 |
| 20260507012818 | 15 | 126 | 1.6 | 4.8 | 0.00 | 0.56 | 0.56 | 94 | 1006.4 |
| 20260507012030 | 15 | 163 | 1.6 | 6.4 | 0.00 | 0.56 | 0.56 | 94 | 1006.4 |
| 20260507011530 | 15 | 157 | 1.6 | 6.4 | 0.00 | 0.56 | 0.56 | 94 | 1006.4 |
| 20260507011029 | 15 | 126 | 1.6 | 6.4 | 0.00 | 0.56 | 0.56 | 94 | 1006.4 |
| 20260507010525 | 15 | 135 | 1.6 | 6.4 | 0.00 | 0.56 | 0.56 | 94 | 1006.4 |
| 20260507010043 | 15 | 140 | 1.6 | 4.8 | 0.00 | 0.56 | 0.56 | 94 | 1006.4 |
| 20260507005524 | 15 | 112 | 1.6 | 9.7 | 0.00 | 0.56 | 0.56 | 94 | 1006.6 |
| 20260507005022 | 15 | 111 | 1.6 | 9.7 | 0.00 | 0.56 | 0.56 | 94 | 1006.4 |
| 20260507004521 | 15 | 80 | 1.6 | 8.0 | 0.00 | 0.56 | 0.56 | 94 | 1006.4 |
| 20260507004309 | 15 | 111 | 1.6 | 8.0 | 0.03 | 0.56 | 0.56 | 94 | 1006.2 |
| 20260507003521 | 15 | 243 | 1.6 | 8.0 | 0.03 | 0.56 | 0.56 | 94 | 1006.2 |
| 20260507003310 | 15 | 203 | 1.6 | 6.4 | 0.03 | 0.56 | 0.56 | 94 | 1006.2 |
| 20260507002519 | 15 | 159 | 3.2 | 8.0 | 0.03 | 0.56 | 0.56 | 94 | 1006.3 |
| 20260507002018 | 15 | 130 | 3.2 | 19.3 | 0.05 | 0.56 | 0.56 | 94 | 1006.2 |
| 20260507001520 | 15 | 216 | 3.2 | 19.3 | 0.08 | 0.56 | 0.56 | 94 | 1006.2 |
| 20260507001016 | 15 | 184 | 1.6 | 6.4 | 0.10 | 0.56 | 0.56 | 94 | 1006.2 |
| 20260507000514 | 15 | 137 | 1.6 | 4.8 | 0.10 | 0.56 | 0.56 | 94 | 1006.3 |
| 20260507000315 | 15 | 204 | 1.6 | 6.4 | 0.13 | 0.56 | 0.56 | 94 | 1006.3 |
| 20260506235515 | 15 | 109 | 1.6 | 6.4 | 0.13 | 0.56 | 0.56 | 94 | 1006.2 |
| 20260506235015 | 15 | 184 | 1.6 | 6.4 | 0.15 | 0.56 | 0.56 | 94 | 1006.1 |
| 20260506234513 | 15 | 198 | 1.6 | 6.4 | 0.15 | 0.56 | 0.53 | 94 | 1006.1 |
| 20260506234010 | 15 | 53 | 1.6 | 6.4 | 0.13 | 0.53 | 0.53 | 94 | 1006.2 |
| 20260506233510 | 15 | 212 | 1.6 | 8.0 | 0.13 | 0.53 | 0.53 | 94 | 1006.1 |
| 20260506233010 | 15 | 100 | 1.6 | 8.0 | 0.13 | 0.53 | 0.53 | 93 | 1006.1 |
| 20260506232509 | 15 | 185 | 1.6 | 4.8 | 0.13 | 0.53 | 0.51 | 93 | 1006.0 |
| 20260506232307 | 15 | 176 | 1.6 | 4.8 | 0.13 | 0.51 | 0.48 | 93 | 1006.2 |
| 20260506231510 | 15 | 217 | 1.6 | 4.8 | 0.10 | 0.48 | 0.48 | 93 | 1006.2 |
| 20260506231010 | 15 | 154 | 1.6 | 6.4 | 0.08 | 0.46 | 0.46 | 93 | 1006.3 |
| 20260506230511 | 15 | 196 | 1.6 | 14.5 | 0.10 | 0.46 | 0.43 | 93 | 1006.4 |
| 20260506230009 | 15 | 197 | 1.6 | 14.5 | 0.10 | 0.43 | 0.43 | 93 | 1006.5 |
| 20260506225508 | 15 | 186 | 1.6 | 6.4 | 0.10 | 0.43 | 0.43 | 93 | 1006.4 |
| 20260506225009 | 15 | 159 | 1.6 | 6.4 | 0.10 | 0.41 | 0.41 | 93 | 1006.4 |
| 20260506224507 | 15 | 191 | 1.6 | 4.8 | 0.13 | 0.41 | 0.41 | 93 | 1006.4 |
| 20260506224006 | 15 | 229 | 1.6 | 4.8 | 0.13 | 0.41 | 0.41 | 93 | 1006.5 |
| 20260506223507 | 15 | 138 | 1.6 | 6.4 | 0.13 | 0.41 | 0.41 | 93 | 1006.5 |
| 20260506223007 | 15 | 140 | 1.6 | 6.4 | 0.13 | 0.41 | 0.41 | 93 | 1006.5 |
| 20260506222507 | 15 | 126 | 1.6 | 4.8 | 0.13 | 0.41 | 0.41 | 93 | 1006.6 |
| 20260506222256 | 15 | 168 | 3.2 | 11.3 | 0.10 | 0.38 | 0.38 | 93 | 1006.6 |
| 20260506221508 | 15 | 173 | 1.6 | 11.3 | 0.10 | 0.38 | 0.38 | 93 | 1006.6 |
| 20260506221008 | 15 | 178 | 1.6 | 6.4 | 0.13 | 0.38 | 0.38 | 93 | 1006.6 |
| 20260506220509 | 15 | 207 | 1.6 | 9.7 | 0.10 | 0.36 | 0.36 | 93 | 1006.7 |
| 20260506220008 | 15 | 136 | 1.6 | 9.7 | 0.10 | 0.33 | 0.33 | 93 | 1006.8 |
| 20260506215503 | 15 | 124 | 1.6 | 4.8 | 0.10 | 0.33 | 0.33 | 93 | 1006.7 |
| 20260506215004 | 15 | 127 | 3.2 | 14.5 | 0.08 | 0.30 | 0.30 | 93 | 1006.7 |
| 20260506214557 | 15 | 150 | 1.6 | 6.4 | 0.08 | 0.28 | 0.28 | 93 | 1006.7 |
| 20260506214543 | 15 | 98 | 3.2 | 14.5 | 0.08 | 0.28 | 0.28 | 92 | 1006.7 |
| 20260506213503 | 15 | 188 | 3.2 | 12.9 | 0.08 | 0.28 | 0.28 | 92 | 1006.8 |
| 20260506213004 | 15 | 171 | 3.2 | 12.9 | 0.10 | 0.28 | 0.28 | 92 | 1006.8 |
| 20260506212503 | 15 | 200 | 3.2 | 8.0 | 0.10 | 0.28 | 0.28 | 92 | 1006.9 |
| 20260506212004 | 15 | 175 | 3.2 | 14.5 | 0.10 | 0.28 | 0.28 | 92 | 1007.0 |
| 20260506211502 | 15 | 134 | 3.2 | 14.5 | 0.13 | 0.28 | 0.28 | 92 | 1007.0 |
| 20260506211255 | 15 | 117 | 3.2 | 8.0 | 0.10 | 0.25 | 0.25 | 93 | 1007.2 |
| 20260506210501 | 15 | 80 | 3.2 | 12.9 | 0.13 | 0.25 | 0.25 | 92 | 1007.1 |
| 20260506210252 | 16 | 132 | 3.2 | 12.9 | 0.10 | 0.23 | 0.23 | 92 | 1007.2 |
| 20260506205500 | 16 | 186 | 3.2 | 11.3 | 0.10 | 0.23 | 0.23 | 92 | 1007.1 |
| 20260506205001 | 16 | 138 | 1.6 | 6.4 | 0.10 | 0.23 | 0.23 | 93 | 1007.1 |
| 20260506204502 | 16 | 301 | 1.6 | 6.4 | 0.08 | 0.20 | 0.20 | 93 | 1007.2 |
| 20260506204004 | 16 | 207 | 1.6 | 6.4 | 0.08 | 0.20 | 0.20 | 93 | 1007.2 |
| 20260506203505 | 16 | 191 | 1.6 | 6.4 | 0.08 | 0.20 | 0.20 | 92 | 1007.2 |
| 20260506203002 | 16 | 180 | 0.0 | 3.2 | 0.05 | 0.18 | 0.18 | 92 | 1007.1 |
| 20260506202458 | 16 | 173 | 1.6 | 3.2 | 0.08 | 0.18 | 0.18 | 92 | 1007.2 |
| 20260506201950 | 16 | 174 | 1.6 | 3.2 | 0.05 | 0.15 | 0.15 | 92 | 1007.2 |
| 20260506201447 | 16 | 174 | 1.6 | 8.0 | 0.05 | 0.15 | 0.15 | 92 | 1007.3 |
| 20260506200939 | 16 | 246 | 1.6 | 8.0 | 0.08 | 0.15 | 0.13 | 92 | 1007.2 |
| 20260506200439 | 16 | 184 | 1.6 | 6.4 | 0.05 | 0.13 | 0.13 | 92 | 1007.2 |
| 20260506195933 | 16 | 209 | 1.6 | 6.4 | 0.08 | 0.13 | 0.13 | 92 | 1007.3 |
| 20260506195819 | 16 | 103 | 1.6 | 6.4 | 0.08 | 0.13 | 0.13 | 92 | 1007.1 |
| 20260506195509 | 16 | 170 | 0.0 | 6.4 | 0.08 | 0.13 | 0.13 | 92 | 1007.1 |
| 20260506194433 | 16 | 134 | 1.6 | 6.4 | 0.10 | 0.13 | 0.13 | 92 | 1007.1 |
| 20260506193933 | 16 | 150 | 0.0 | 3.2 | 0.10 | 0.13 | 0.13 | 93 | 1007.2 |
| 20260506193435 | 17 | 150 | 1.6 | 4.8 | 0.10 | 0.13 | 0.13 | 93 | 1007.2 |
| 20260506193225 | 17 | 236 | 0.0 | 4.8 | 0.13 | 0.13 | 0.13 | 92 | 1006.9 |
| 20260506192430 | 17 | 323 | 0.0 | 1.6 | 0.10 | 0.10 | 0.10 | 92 | 1007.1 |
| 20260506192224 | 17 | 323 | 0.0 | 1.6 | 0.10 | 0.10 | 0.10 | 92 | 1007.3 |
| 20260506191432 | 17 | 323 | 0.0 | 3.2 | 0.10 | 0.10 | 0.10 | 92 | 1007.3 |
| 20260506190932 | 17 | 323 | 0.0 | 3.2 | 0.08 | 0.08 | 0.08 | 91 | 1007.5 |
| 20260506190431 | 17 | 323 | 0.0 | 3.2 | 0.08 | 0.08 | 0.08 | 91 | 1007.4 |
| 20260506185928 | 17 | 323 | 0.0 | 3.2 | 0.05 | 0.05 | 0.05 | 91 | 1007.5 |
| 20260506185517 | 17 | 323 | 1.6 | 6.4 | 0.05 | 0.05 | 0.03 | 90 | 1007.7 |
| 20260506185506 | 17 | 323 | 0.0 | 6.4 | 0.05 | 0.05 | 0.05 | 91 | 1007.6 |
| 20260506184431 | 17 | 281 | 1.6 | 4.8 | 0.03 | 0.03 | 0.03 | 89 | 1007.7 |
| 20260506183930 | 17 | 281 | 1.6 | 4.8 | 0.03 | 0.03 | 0.03 | 87 | 1007.7 |
| 20260506183426 | 18 | 281 | 1.6 | 4.8 | 0.03 | 0.03 | 0.00 | 84 | 1007.8 |
| 20260506182925 | 18 | 282 | 1.6 | 4.8 | 0.00 | 0.00 | 0.00 | 82 | 1007.7 |
| 20260506182425 | 19 | 130 | 1.6 | 14.5 | 0.00 | 0.00 | 0.00 | 79 | 1007.6 |
| 20260506181920 | 20 | 108 | 3.2 | 14.5 | 0.00 | 0.00 | 0.00 | 76 | 1007.5 |
| 20260506181714 | 20 | 211 | 3.2 | 12.9 | 0.00 | 0.00 | 0.00 | 74 | 1007.3 |
| 20260506180919 | 20 | 101 | 3.2 | 12.9 | 0.00 | 0.00 | 0.00 | 71 | 1007.4 |
| 20260506180420 | 21 | 178 | 3.2 | 11.3 | 0.00 | 0.00 | 0.00 | 69 | 1007.6 |
| 20260506175920 | 21 | 279 | 3.2 | 11.3 | 0.00 | 0.00 | 0.00 | 64 | 1007.4 |
| 20260506175414 | 21 | 217 | 1.6 | 16.1 | 0.00 | 0.00 | 0.00 | 64 | 1007.6 |
| 20260506175200 | 21 | 111 | 3.2 | 16.1 | 0.00 | 0.00 | 0.00 | 62 | 1007.4 |
| 20260506174409 | 22 | 105 | 3.2 | 24.1 | 0.00 | 0.00 | 0.00 | 63 | 1007.4 |
| 20260506173907 | 22 | 123 | 4.8 | 24.1 | 0.00 | 0.00 | 0.00 | 61 | 1007.4 |
| 20260506173405 | 22 | 141 | 4.8 | 16.1 | 0.00 | 0.00 | 0.00 | 62 | 1007.4 |
| 20260506172905 | 22 | 148 | 3.2 | 16.1 | 0.00 | 0.00 | 0.00 | 61 | 1007.4 |
| 20260506172405 | 22 | 191 | 3.2 | 12.9 | 0.00 | 0.00 | 0.00 | 62 | 1007.5 |
| 20260506171903 | 22 | 101 | 3.2 | 17.7 | 0.00 | 0.00 | 0.00 | 62 | 1007.5 |
| 20260506171400 | 22 | 143 | 3.2 | 17.7 | 0.00 | 0.00 | 0.00 | 62 | 1007.6 |
| 20260506170901 | 22 | 219 | 4.8 | 14.5 | 0.00 | 0.00 | 0.00 | 63 | 1007.6 |
| 20260506170401 | 22 | 227 | 3.2 | 12.9 | 0.00 | 0.00 | 0.00 | 62 | 1007.7 |
| 20260506165903 | 22 | 118 | 3.2 | 14.5 | 0.00 | 0.00 | 0.00 | 61 | 1007.7 |
| 20260506165405 | 22 | 154 | 4.8 | 14.5 | 0.00 | 0.00 | 0.00 | 64 | 1007.8 |
| 20260506164859 | 22 | 108 | 3.2 | 16.1 | 0.00 | 0.00 | 0.00 | 62 | 1007.9 |
| 20260506164353 | 22 | 112 | 3.2 | 16.1 | 0.00 | 0.00 | 0.00 | 62 | 1008.0 |
| 20260506164140 | 22 | 92 | 3.2 | 9.7 | 0.00 | 0.00 | 0.00 | 63 | 1008.1 |
| 20260506163340 | 22 | 96 | 1.6 | 9.7 | 0.00 | 0.00 | 0.00 | 63 | 1008.1 |
| 20260506162833 | 21 | 159 | 1.6 | 11.3 | 0.00 | 0.00 | 0.00 | 64 | 1008.2 |
| 20260506162329 | 21 | 258 | 3.2 | 11.3 | 0.00 | 0.00 | 0.00 | 65 | 1008.3 |
| 20260506161830 | 21 | 71 | 3.2 | 11.3 | 0.00 | 0.00 | 0.00 | 65 | 1008.4 |
| 20260506161330 | 21 | 126 | 3.2 | 12.9 | 0.00 | 0.00 | 0.00 | 65 | 1008.6 |
| 20260506161119 | 21 | 144 | 3.2 | 12.9 | 0.00 | 0.00 | 0.00 | 65 | 1008.7 |
| 20260506160609 | 21 | 115 | 4.8 | 22.5 | 0.00 | 0.00 | 0.00 | 65 | 1009.0 |
| 20260506160525 | 21 | 109 | 3.2 | 14.5 | 0.00 | 0.00 | 0.00 | 66 | 1008.9 |
| 20260506160006 | 21 | 122 | 3.2 | 12.9 | 0.00 | 0.00 | 0.00 | 66 | 1009.1 |
| 20260506155940 | 21 | 104 | 4.8 | 22.5 | 0.00 | 0.00 | 0.00 | 66 | 1009.0 |
| 20260506154330 | 21 | 101 | 3.2 | 14.5 | 0.00 | 0.00 | 0.00 | 65 | 1009.1 |
| 20260506153832 | 21 | 119 | 4.8 | 14.5 | 0.00 | 0.00 | 0.00 | 65 | 1009.4 |
| 20260506153633 | 21 | 98 | 3.2 | 11.3 | 0.00 | 0.00 | 0.00 | 66 | 1009.4 |
| 20260506152833 | 21 | 187 | 3.2 | 8.0 | 0.00 | 0.00 | 0.00 | 66 | 1009.4 |
| 20260506152332 | 21 | 123 | 3.2 | 9.7 | 0.00 | 0.00 | 0.00 | 67 | 1009.5 |
| 20260506152120 | 21 | 248 | 4.8 | 14.5 | 0.00 | 0.00 | 0.00 | 67 | 1009.5 |
| 20260506151331 | 21 | 74 | 3.2 | 14.5 | 0.00 | 0.00 | 0.00 | 66 | 1009.4 |
| 20260506150830 | 21 | 240 | 3.2 | 16.1 | 0.00 | 0.00 | 0.00 | 70 | 1009.3 |
| 20260506150332 | 21 | 98 | 3.2 | 16.1 | 0.00 | 0.00 | 0.00 | 67 | 1009.4 |
| 20260506145826 | 21 | 223 | 3.2 | 12.9 | 0.00 | 0.00 | 0.00 | 68 | 1009.5 |
| 20260506145321 | 21 | 145 | 3.2 | 12.9 | 0.00 | 0.00 | 0.00 | 69 | 1009.6 |
| 20260506144814 | 21 | 123 | 3.2 | 12.9 | 0.00 | 0.00 | 0.00 | 68 | 1009.4 |
| 20260506144309 | 20 | 226 | 3.2 | 11.3 | 0.00 | 0.00 | 0.00 | 69 | 1009.4 |
| 20260506143805 | 20 | 107 | 4.8 | 11.3 | 0.00 | 0.00 | 0.00 | 70 | 1009.4 |
| 20260506143305 | 20 | 129 | 3.2 | 11.3 | 0.00 | 0.00 | 0.00 | 70 | 1009.5 |
| 20260506142804 | 20 | 227 | 1.6 | 11.3 | 0.00 | 0.00 | 0.00 | 69 | 1009.6 |
| 20260506142558 | 20 | 144 | 3.2 | 11.3 | 0.00 | 0.00 | 0.00 | 71 | 1009.4 |
| 20260506142056 | 20 | 126 | 3.2 | 11.3 | 0.00 | 0.00 | 0.00 | 70 | 1009.2 |
| 20260506141305 | 20 | 173 | 3.2 | 9.7 | 0.00 | 0.00 | 0.00 | 73 | 1009.2 |
| 20260506140805 | 20 | 192 | 4.8 | 9.7 | 0.00 | 0.00 | 0.00 | 72 | 1009.2 |
| 20260506140300 | 19 | 132 | 3.2 | 9.7 | 0.00 | 0.00 | 0.00 | 73 | 1009.4 |
| 20260506135803 | 19 | 145 | 3.2 | 12.9 | 0.00 | 0.00 | 0.00 | 74 | 1009.4 |
| 20260506135301 | 18 | 183 | 3.2 | 12.9 | 0.00 | 0.00 | 0.00 | 74 | 1009.3 |
| 20260506134801 | 18 | 155 | 1.6 | 12.9 | 0.00 | 0.00 | 0.00 | 75 | 1009.5 |
| 20260506134302 | 18 | 109 | 1.6 | 12.9 | 0.00 | 0.00 | 0.00 | 75 | 1009.6 |
| 20260506133801 | 18 | 191 | 1.6 | 9.7 | 0.00 | 0.00 | 0.00 | 75 | 1009.7 |
| 20260506133302 | 18 | 77 | 1.6 | 9.7 | 0.00 | 0.00 | 0.00 | 75 | 1009.8 |
| 20260506132801 | 18 | 148 | 1.6 | 9.7 | 0.00 | 0.00 | 0.00 | 76 | 1009.9 |
| 20260506132301 | 18 | 119 | 3.2 | 11.3 | 0.00 | 0.00 | 0.00 | 76 | 1009.8 |
| 20260506131801 | 18 | 148 | 3.2 | 11.3 | 0.00 | 0.00 | 0.00 | 76 | 1010.0 |
| 20260506131302 | 18 | 239 | 3.2 | 14.5 | 0.00 | 0.00 | 0.00 | 76 | 1009.8 |
| 20260506130757 | 18 | 111 | 4.8 | 14.5 | 0.00 | 0.00 | 0.00 | 75 | 1009.8 |
| 20260506130250 | 18 | 129 | 3.2 | 12.9 | 0.00 | 0.00 | 0.00 | 75 | 1009.8 |
| 20260506125744 | 18 | 102 | 3.2 | 12.9 | 0.00 | 0.00 | 0.00 | 75 | 1010.0 |
| 20260506125238 | 18 | 218 | 1.6 | 12.9 | 0.00 | 0.00 | 0.00 | 76 | 1010.1 |
| 20260506124731 | 18 | 120 | 3.2 | 11.3 | 0.00 | 0.00 | 0.00 | 76 | 1010.0 |
| 20260506124226 | 18 | 80 | 3.2 | 11.3 | 0.00 | 0.00 | 0.00 | 76 | 1009.8 |
| 20260506123721 | 18 | 226 | 1.6 | 11.3 | 0.00 | 0.00 | 0.00 | 76 | 1009.7 |
| 20260506123220 | 17 | 173 | 3.2 | 11.3 | 0.00 | 0.00 | 0.00 | 76 | 1009.8 |
| 20260506122717 | 17 | 67 | 3.2 | 9.7 | 0.00 | 0.00 | 0.00 | 77 | 1009.9 |
| 20260506122216 | 17 | 227 | 3.2 | 12.9 | 0.00 | 0.00 | 0.00 | 77 | 1010.1 |
| 20260506121713 | 17 | 202 | 3.2 | 12.9 | 0.00 | 0.00 | 0.00 | 76 | 1010.0 |
| 20260506121214 | 17 | 129 | 1.6 | 6.4 | 0.00 | 0.00 | 0.00 | 77 | 1010.1 |
| 20260506120715 | 17 | 152 | 1.6 | 8.0 | 0.00 | 0.00 | 0.00 | 78 | 1010.1 |
| 20260506120211 | 17 | 217 | 1.6 | 8.0 | 0.00 | 0.00 | 0.00 | 78 | 1010.1 |
| 20260506115711 | 17 | 216 | 1.6 | 8.0 | 0.00 | 0.00 | 0.00 | 78 | 1010.1 |
| 20260506115512 | 17 | 72 | 1.6 | 8.0 | 0.00 | 0.00 | 0.00 | 78 | 1010.2 |
| 20260506114711 | 17 | 105 | 1.6 | 8.0 | 0.00 | 0.00 | 0.00 | 78 | 1010.4 |
| 20260506114211 | 17 | 163 | 1.6 | 8.0 | 0.00 | 0.00 | 0.00 | 79 | 1010.2 |
| 20260506113710 | 16 | 109 | 1.6 | 8.0 | 0.00 | 0.00 | 0.00 | 79 | 1010.4 |
| 20260506113207 | 16 | 156 | 1.6 | 4.8 | 0.00 | 0.00 | 0.00 | 79 | 1010.5 |
| 20260506112708 | 16 | 146 | 1.6 | 4.8 | 0.00 | 0.00 | 0.00 | 79 | 1010.5 |
| 20260506112208 | 16 | 215 | 1.6 | 9.7 | 0.00 | 0.00 | 0.00 | 79 | 1010.5 |
| 20260506111704 | 16 | 68 | 3.2 | 11.3 | 0.00 | 0.00 | 0.00 | 80 | 1010.5 |
| 20260506111202 | 16 | 211 | 3.2 | 11.3 | 0.00 | 0.00 | 0.00 | 80 | 1010.5 |
| 20260506110703 | 16 | 143 | 1.6 | 6.4 | 0.00 | 0.00 | 0.00 | 80 | 1010.4 |
| 20260506110451 | 16 | 167 | 1.6 | 6.4 | 0.00 | 0.00 | 0.00 | 80 | 1010.4 |
| 20260506105653 | 16 | 136 | 1.6 | 4.8 | 0.00 | 0.00 | 0.00 | 80 | 1010.6 |
| 20260506105154 | 16 | 101 | 1.6 | 12.9 | 0.00 | 0.00 | 0.00 | 80 | 1010.7 |
| 20260506104654 | 16 | 184 | 1.6 | 12.9 | 0.00 | 0.00 | 0.00 | 80 | 1010.6 |
| 20260506104151 | 16 | 131 | 0.0 | 4.8 | 0.00 | 0.00 | 0.00 | 80 | 1010.7 |
| 20260506103651 | 16 | 155 | 1.6 | 4.8 | 0.00 | 0.00 | 0.00 | 80 | 1010.4 |
| 20260506103150 | 16 | 155 | 1.6 | 9.7 | 0.00 | 0.00 | 0.00 | 80 | 1010.5 |
| 20260506102943 | 16 | 18 | 1.6 | 9.7 | 0.00 | 0.00 | 0.00 | 80 | 1010.4 |
| 20260506102149 | 15 | 239 | 1.6 | 8.0 | 0.00 | 0.00 | 0.00 | 80 | 1010.4 |
| 20260506101942 | 15 | 123 | 1.6 | 6.4 | 0.00 | 0.00 | 0.00 | 80 | 1010.5 |
| 20260506101149 | 15 | 99 | 1.6 | 11.3 | 0.00 | 0.00 | 0.00 | 80 | 1010.6 |
| 20260506100653 | 15 | 234 | 1.6 | 11.3 | 0.00 | 0.00 | 0.00 | 80 | 1010.6 |
| 20260506100151 | 15 | 124 | 1.6 | 6.4 | 0.00 | 0.00 | 0.00 | 80 | 1010.6 |
| 20260506095646 | 15 | 219 | 1.6 | 8.0 | 0.00 | 0.00 | 0.00 | 79 | 1010.6 |
| 20260506095145 | 15 | 219 | 1.6 | 8.0 | 0.00 | 0.00 | 0.00 | 79 | 1010.4 |
| 20260506094646 | 15 | 109 | 1.6 | 8.0 | 0.00 | 0.00 | 0.00 | 79 | 1010.5 |
| 20260506094144 | 15 | 163 | 1.6 | 6.4 | 0.00 | 0.00 | 0.00 | 79 | 1010.1 |
| 20260506093644 | 16 | 225 | 0.0 | 4.8 | 0.00 | 0.00 | 0.00 | 79 | 1010.4 |
| 20260506093142 | 16 | 183 | 1.6 | 4.8 | 0.00 | 0.00 | 0.00 | 79 | 1010.5 |
| 20260506092643 | 16 | 132 | 1.6 | 8.0 | 0.00 | 0.00 | 0.00 | 79 | 1010.5 |
| 20260506092429 | 16 | 190 | 1.6 | 8.0 | 0.00 | 0.00 | 0.00 | 78 | 1010.4 |
| 20260506091644 | 16 | 186 | 1.6 | 4.8 | 0.00 | 0.00 | 0.00 | 78 | 1010.2 |
| 20260506091143 | 16 | 175 | 1.6 | 6.4 | 0.00 | 0.00 | 0.00 | 78 | 1010.2 |
| 20260506090643 | 16 | 179 | 1.6 | 6.4 | 0.00 | 0.00 | 0.00 | 78 | 1010.4 |
| 20260506090144 | 16 | 143 | 0.0 | 3.2 | 0.00 | 0.00 | 0.00 | 77 | 1010.2 |
| 20260506085640 | 16 | 181 | 1.6 | 4.8 | 0.00 | 0.00 | 0.00 | 77 | 1010.2 |
| 20260506085143 | 16 | 181 | 1.6 | 6.4 | 0.00 | 0.00 | 0.00 | 77 | 1010.2 |
| 20260506084642 | 16 | 174 | 1.6 | 6.4 | 0.00 | 0.00 | 0.00 | 77 | 1010.4 |
| 20260506084139 | 16 | 185 | 0.0 | 4.8 | 0.00 | 0.00 | 0.00 | 76 | 1010.4 |
| 20260506083930 | 16 | 226 | 1.6 | 8.0 | 0.00 | 0.00 | 0.00 | 76 | 1010.2 |
| 20260506083139 | 16 | 142 | 1.6 | 8.0 | 0.00 | 0.00 | 0.00 | 76 | 1010.2 |
| 20260506082634 | 16 | 151 | 1.6 | 12.9 | 0.00 | 0.00 | 0.00 | 76 | 1010.2 |
| 20260506082419 | 16 | 112 | 1.6 | 12.9 | 0.00 | 0.00 | 0.00 | 76 | 1010.2 |
| 20260506081636 | 16 | 156 | 1.6 | 6.4 | 0.00 | 0.00 | 0.00 | 75 | 1010.2 |
| 20260506081136 | 16 | 156 | 1.6 | 6.4 | 0.00 | 0.00 | 0.00 | 75 | 1010.2 |
| 20260506080635 | 16 | 258 | 1.6 | 3.2 | 0.00 | 0.00 | 0.00 | 75 | 1010.2 |
| 20260506080136 | 16 | 266 | 1.6 | 8.0 | 0.00 | 0.00 | 0.00 | 74 | 1010.1 |